Wind_Speed
42 42 42 43 43 43 44 44 44 44 43 43 43 43 42 42 42 41 40 39 37 36 35 34 35 35 35 34 34 34 34 34 34 33 33 33 33 33 34 34 33 34 34
42 43 43 43 43 43 44 44 44 44 44 43 43 43 43 42 43 43 42 41 39 38 37 36 36 35 35 36 36 35 35 35 34 34 35 35 35 35 35 35 34 34 34
40 41 41 42 42 42 43 43 43 43 44 44 44 44 44 43 44 43 43 42 41 40 39 38 37 37 37 37 37 37 37 36 36 36 36 36 36 35 34 34 34 34 35
38 39 40 40 41 41 42 42 42 42 43 44 44 44 44 43 43 43 43 43 42 41 40 40 40 40 39 39 39 39 39 38 38 38 38 38 37 35 35 35 35 36 36
37 38 39 40 40 40 40 41 41 40 40 41 42 42 42 42 42 42 42 43 43 42 41 41 41 40 40 40 40 40 40 40 39 39 39 38 37 36 36 36 36 37 37
37 38 38 39 40 39 38 39 40 39 39 39 40 41 41 42 42 42 42 43 43 42 42 42 42 41 41 40 39 39 39 39 40 39 40 39 38 38 37 38 38 38 38
35 36 36 37 38 38 38 37 38 38 38 39 39 40 41 42 42 42 43 43 43 42 42 41 41 42 41 41 41 40 40 39 40 40 39 39 40 39 39 40 40 40 40
34 35 35 35 36 36 36 37 37 37 36 37 38 39 39 40 41 41 42 43 43 43 43 42 41 41 41 41 41 41 41 41 40 40 39 39 40 40 40 41 41 41 40
33 33 33 33 34 35 35 36 37 36 35 36 37 37 38 39 39 40 41 43 43 42 42 42 41 41 41 41 41 41 41 41 40 40 39 39 39 40 40 41 42 42 42
32 32 32 33 34 34 35 35 36 36 35 35 35 36 36 37 38 39 40 40 41 41 41 41 41 42 42 42 41 41 41 40 40 40 40 40 40 41 41 42 43 43 44
31 31 32 33 33 34 34 35 36 35 34 34 33 34 35 35 36 37 38 39 40 40 40 39 40 41 41 41 41 41 41 41 40 40 40 41 42 42 42 43 44 44 44
31 32 33 33 33 33 34 35 35 35 34 34 34 33 34 35 35 36 37 38 38 38 37 37 38 39 39 39 40 40 40 40 40 41 41 42 42 43 43 44 44 44 44
30 31 33 34 34 34 34 35 35 35 35 35 34 34 34 35 35 36 36 36 36 37 37 37 37 38 38 39 39 40 40 40 40 41 41 42 43 43 44 44 44 45 45
29 30 32 33 34 35 35 35 35 34 35 35 35 34 35 35 35 35 35 36 36 37 37 37 37 38 39 39 40 41 41 41 41 42 42 43 43 44 44 45 45 45 45
29 29 30 31 32 34 34 35 35 35 35 35 35 35 34 34 35 36 36 36 37 38 38 38 38 38 39 39 40 41 41 42 42 43 43 43 43 43 44 44 45 45 46
30 29 29 29 30 32 34 35 36 36 36 36 35 35 36 36 36 36 36 36 37 38 38 38 39 39 39 40 40 41 41 42 42 42 43 44 43 44 44 44 44 45 45
30 30 31 31 30 32 33 34 36 36 37 37 37 36 36 36 37 37 36 36 37 37 38 39 39 39 39 40 40 41 41 41 41 42 43 43 43 43 43 43 43 43 43
31 31 31 31 31 32 32 34 35 36 36 37 37 36 36 37 38 37 36 37 37 37 38 39 40 39 39 39 40 41 41 41 41 42 42 42 42 42 42 42 42 41 41
31 31 31 31 31 32 32 33 35 35 35 36 36 36 37 37 38 38 37 38 38 38 38 38 38 38 38 38 39 40 41 41 41 41 41 41 41 41 41 40 39 39 40
32 31 31 32 33 33 33 33 33 33 34 35 35 36 37 37 37 37 37 38 38 38 38 38 38 38 37 38 38 40 40 41 41 40 40 41 41 40 40 39 39 39 39
31 31 32 32 33 33 33 33 33 33 33 34 34 35 36 36 36 37 37 37 38 38 38 38 38 38 38 38 38 40 40 40 39 38 38 38 38 39 39 39 39 39 38
32 32 32 32 33 33 34 34 33 33 33 33 33 34 35 35 36 37 37 37 37 37 37 38 39 39 38 38 38 39 39 39 38 37 37 38 38 37 36 36 36 36 36
31 31 32 32 32 32 33 33 33 33 33 33 33 34 34 34 34 35 35 36 36 37 37 38 38 38 38 38 38 38 38 38 38 37 37 37 36 36 35 35 35 35 36
30 30 30 30 30 31 32 31 31 31 31 31 32 32 32 32 33 33 34 35 35 35 36 37 37 37 37 37 37 37 37 37 36 36 36 36 36 35 35 35 35 34 34
29 30 30 30 30 30 30 30 30 30 30 30 30 31 31 32 32 32 32 32 33 33 33 34 34 35 35 36 36 36 35 35 35 35 35 35 35 35 34 34 34 33 33
29 29 29 30 30 29 29 29 29 29 29 30 29 29 29 30 30 31 31 31 31 30 31 31 32 32 32 33 33 34 34 34 34 34 34 34 33 33 33 33 33 33 33
Wind_Direction
248 249 250 250 250 250 251 251 252 253 253 254 254 254 254 255 254 254 254 256 257 258 260 260 261 261 262 262 262 264 263 263 263 264 265 266 268 268 270 270 270 273 274
249 250 251 251 251 251 251 251 252 253 253 253 255 254 254 254 254 254 253 255 255 256 258 258 259 260 261 261 261 262 262 262 262 263 265 265 267 268 270 270 272 273 274
251 251 251 251 251 252 251 251 251 252 252 253 253 253 253 254 254 253 252 253 253 255 257 257 258 259 260 261 260 260 261 262 262 263 264 265 266 267 269 269 272 274 275
252 251 252 253 252 251 251 250 250 251 252 252 253 253 253 253 253 253 252 252 253 253 256 256 256 258 259 259 259 260 260 261 262 264 264 265 266 268 268 270 273 274 275
253 252 252 253 253 252 252 250 250 249 252 252 252 251 251 251 251 251 252 252 252 253 255 255 256 258 258 259 259 259 259 260 262 263 263 264 267 268 269 270 272 274 275
255 254 254 253 253 252 252 251 250 250 250 251 251 250 251 251 251 250 251 251 252 253 254 255 256 257 257 257 257 258 259 260 261 262 262 264 266 268 269 271 272 273 275
256 256 256 254 252 251 251 252 250 250 250 251 251 250 252 252 251 251 251 251 252 252 253 254 255 256 256 257 258 259 259 260 260 262 263 265 266 267 270 271 272 273 275
255 255 255 254 252 251 251 251 250 249 249 251 252 251 251 252 253 253 252 252 251 252 253 254 255 256 257 257 257 258 259 260 260 261 262 265 267 269 271 272 274 275 276
255 254 252 252 252 252 250 248 248 248 249 250 251 251 252 253 254 254 254 252 252 253 253 254 255 256 257 256 257 258 260 259 260 261 263 266 268 270 271 274 275 276 277
255 253 251 252 251 251 249 247 247 247 248 249 250 251 251 254 255 254 253 253 253 254 255 255 255 255 256 256 258 259 259 259 260 261 263 265 268 271 273 275 276 278 279
255 254 253 252 250 248 248 247 247 245 247 249 250 250 251 254 254 254 255 255 255 255 254 254 255 255 255 256 258 259 259 260 261 263 264 266 268 270 273 275 277 278 279
256 254 253 252 250 249 248 247 246 247 248 249 250 251 254 254 255 255 256 256 255 255 254 255 255 255 256 256 257 258 260 261 262 264 266 267 269 271 273 275 277 277 278
257 255 253 252 250 249 249 249 248 248 248 248 251 253 253 255 256 256 255 255 254 254 256 257 257 256 256 256 257 258 259 261 263 264 266 268 269 271 273 275 276 277 278
257 255 254 253 251 250 250 250 250 249 249 249 251 253 254 255 256 255 254 255 255 255 256 256 256 256 256 256 257 259 260 261 263 265 266 268 270 272 273 275 276 277 278
258 257 256 253 250 250 251 251 251 252 251 251 252 253 255 255 255 255 255 256 256 255 256 256 256 256 257 258 259 259 260 262 264 266 268 269 270 272 274 275 275 276 278
259 258 256 255 252 251 252 253 253 254 253 253 255 255 255 255 255 256 256 256 256 255 257 258 257 257 258 259 260 261 262 264 266 268 269 270 271 273 274 276 277 278 279
259 257 255 255 254 254 254 254 254 255 256 255 255 255 255 254 256 257 256 256 256 257 257 257 258 259 258 259 261 261 262 265 267 269 270 271 272 273 274 276 277 278 279
259 257 255 255 255 255 256 256 255 255 256 256 256 256 256 255 256 255 256 256 256 256 257 258 259 259 259 260 260 261 262 265 267 269 271 272 273 274 275 276 276 277 279
259 257 256 256 257 257 256 256 256 255 256 257 258 257 257 256 257 256 257 257 257 257 257 257 257 259 260 261 261 262 262 264 267 269 271 272 273 275 275 275 276 277 279
260 258 257 257 258 258 257 257 256 256 257 258 259 259 258 258 258 257 258 259 258 257 258 258 258 258 259 260 262 263 264 265 267 269 270 271 272 273 274 273 274 276 278
260 258 257 259 259 258 256 255 256 257 258 258 258 259 259 258 259 259 259 259 259 259 258 258 259 259 259 261 263 264 265 267 268 269 269 270 272 272 272 273 273 275 275
261 259 259 259 259 258 256 255 256 256 258 258 259 259 260 260 260 260 260 261 260 260 260 260 260 260 262 263 264 264 266 267 269 269 269 270 271 273 273 273 274 274 275
262 260 260 259 258 258 257 256 257 257 258 259 260 260 260 260 261 262 261 262 262 261 261 261 261 261 262 264 265 265 266 268 269 269 269 270 271 272 273 274 275 275 276
261 261 260 258 258 257 257 257 257 257 258 259 259 260 260 260 262 263 263 263 264 265 263 262 262 262 262 263 265 266 266 267 269 269 269 270 270 271 272 273 274 274 276
262 262 260 259 258 257 257 257 259 259 259 259 260 260 261 261 262 263 263 264 265 266 264 264 263 263 263 264 264 265 265 266 267 268 268 269 269 269 271 272 273 274 275
262 262 261 260 258 258 258 259 259 260 260 260 261 261 261 261 262 262 262 263 264 265 265 265 264 265 265 264 264 264 264 265 266 268 268 269 269 269 270 271 271 272 274
Height
5690 5692 5695 5698 5701 5704 5707 5710 5713 5716 5718 5721 5723 5726 5729 5731 5733 5736 5738 5740 5742 5743 5745 5746 5747 5749 5751 5752 5754 5755 5756 5758 5759 5760 5761 5762 5763 5764 5764 5765 5765 5765 5765
5679 5682 5684 5687 5690 5693 5696 5699 5702 5705 5708 5711 5713 5716 5719 5721 5724 5726 5729 5731 5732 5734 5736 5737 5739 5741 5743 5744 5746 5747 5748 5750 5751 5753 5753 5754 5756 5756 5756 5757 5757 5757 5757
5668 5671 5674 5676 5679 5682 5685 5687 5691 5694 5696 5699 5702 5705 5708 5711 5713 5716 5719 5721 5723 5725 5727 5728 5730 5732 5734 5736 5737 5738 5740 5741 5743 5744 5745 5746 5748 5748 5748 5748 5749 5748 5748
5658 5661 5663 5666 5668 5671 5674 5676 5679 5682 5685 5688 5691 5694 5698 5701 5703 5706 5708 5711 5713 5715 5717 5719 5721 5723 5725 5726 5728 5729 5731 5732 5734 5734 5736 5738 5739 5740 5740 5740 5740 5740 5740
5649 5651 5653 5656 5658 5660 5663 5665 5668 5671 5674 5677 5680 5683 5687 5690 5692 5695 5697 5700 5703 5705 5707 5708 5710 5712 5714 5716 5718 5719 5721 5723 5724 5725 5726 5728 5729 5730 5732 5733 5732 5732 5731
5639 5641 5643 5646 5648 5650 5653 5655 5658 5661 5664 5667 5670 5673 5676 5679 5681 5684 5687 5690 5692 5695 5696 5698 5700 5702 5704 5706 5707 5709 5711 5713 5714 5716 5717 5719 5720 5721 5722 5723 5723 5723 5722
5630 5632 5634 5637 5639 5641 5644 5646 5649 5652 5655 5658 5660 5663 5666 5668 5671 5673 5676 5679 5682 5684 5686 5688 5690 5691 5693 5695 5697 5699 5701 5703 5704 5706 5708 5709 5711 5712 5712 5713 5713 5713 5713
5622 5624 5626 5628 5630 5633 5635 5638 5640 5643 5646 5648 5651 5653 5656 5658 5661 5663 5666 5668 5671 5673 5675 5677 5679 5682 5683 5685 5687 5689 5691 5693 5694 5696 5698 5699 5701 5702 5703 5703 5703 5703 5704
5613 5615 5617 5619 5622 5624 5626 5629 5631 5634 5637 5639 5642 5644 5646 5648 5651 5653 5655 5658 5660 5662 5664 5666 5669 5671 5673 5675 5677 5679 5681 5683 5684 5686 5688 5690 5691 5692 5692 5693 5693 5693 5693
5605 5607 5609 5611 5613 5616 5618 5620 5623 5626 5628 5630 5632 5635 5637 5639 5641 5643 5645 5648 5650 5652 5654 5656 5659 5661 5662 5664 5667 5669 5671 5673 5674 5676 5678 5680 5681 5681 5682 5682 5682 5682 5682
5597 5599 5601 5603 5605 5607 5609 5612 5614 5617 5619 5621 5623 5626 5628 5630 5632 5634 5636 5638 5640 5642 5644 5646 5648 5651 5653 5654 5657 5659 5661 5663 5664 5666 5668 5669 5670 5671 5671 5671 5671 5670 5670
5590 5591 5593 5595 5597 5599 5601 5603 5606 5608 5611 5613 5615 5617 5619 5621 5623 5624 5626 5628 5630 5632 5635 5637 5639 5641 5643 5645 5647 5649 5651 5653 5655 5656 5658 5659 5659 5660 5660 5659 5659 5659 5658
5582 5584 5585 5587 5589 5591 5593 5595 5597 5600 5602 5604 5606 5608 5610 5612 5614 5615 5617 5619 5621 5623 5625 5627 5629 5631 5633 5636 5638 5639 5641 5643 5644 5646 5647 5647 5648 5648 5648 5648 5647 5646 5646
5574 5576 5577 5578 5580 5583 5585 5587 5589 5591 5594 5596 5598 5599 5601 5603 5605 5606 5608 5610 5612 5614 5616 5618 5620 5622 5624 5626 5627 5629 5631 5632 5634 5635 5636 5636 5636 5636 5636 5636 5635 5634 5634
5566 5567 5569 5570 5572 5574 5576 5578 5580 5583 5585 5587 5589 5591 5593 5594 5595 5597 5598 5600 5602 5604 5606 5608 5610 5612 5613 5615 5617 5619 5620 5622 5623 5624 5624 5625 5625 5625 5624 5624 5623 5622 5621
5558 5559 5561 5562 5563 5565 5567 5569 5572 5574 5576 5578 5580 5582 5583 5585 5586 5587 5589 5590 5592 5594 5596 5598 5600 5601 5603 5605 5606 5608 5610 5611 5612 5613 5613 5613 5613 5613 5612 5611 5610 5609 5608
5550 5551 5552 5554 5555 5557 5559 5560 5562 5564 5566 5568 5570 5572 5573 5575 5576 5577 5579 5581 5582 5584 5585 5587 5589 5591 5593 5594 5596 5597 5599 5600 5601 5601 5601 5601 5601 5600 5599 5599 5598 5597 5595
5541 5543 5544 5545 5547 5548 5550 5551 5553 5555 5556 5558 5560 5562 5563 5565 5566 5567 5569 5571 5572 5574 5575 5577 5578 5580 5582 5583 5585 5586 5588 5589 5590 5590 5589 5589 5589 5588 5587 5587 5586 5585 5584
5533 5534 5535 5537 5538 5539 5541 5542 5544 5545 5547 5548 5550 5552 5553 5554 5556 5557 5559 5560 5562 5563 5565 5566 5567 5569 5571 5572 5574 5575 5576 5577 5578 5578 5578 5578 5577 5576 5575 5575 5575 5574 5573
5524 5525 5527 5528 5529 5530 5532 5533 5534 5536 5538 5539 5540 5541 5542 5544 5546 5547 5548 5550 5551 5552 5554 5555 5557 5558 5560 5561 5562 5563 5565 5566 5567 5567 5566 5566 5566 5565 5564 5564 5563 5563 5562
5516 5517 5518 5519 5520 5521 5522 5523 5525 5527 5528 5529 5530 5531 5533 5534 5535 5536 5537 5538 5540 5541 5543 5545 5546 5547 5549 5550 5551 5552 5553 5554 5555 5555 5555 5555 5554 5554 5553 5553 5552 5552 5551
5507 5508 5508 5509 5510 5511 5512 5514 5516 5517 5518 5519 5520 5522 5523 5524 5525 5526 5527 5528 5529 5530 5532 5533 5535 5536 5538 5539 5540 5540 5541 5542 5543 5544 5544 5544 5544 5543 5543 5542 5542 5541 5540
5498 5498 5499 5500 5501 5502 5503 5505 5506 5508 5509 5510 5511 5512 5513 5514 5515 5516 5516 5517 5518 5520 5521 5523 5524 5526 5527 5528 5529 5530 5530 5531 5532 5533 5534 5534 5533 5533 5532 5532 5531 5531 5531
5489 5489 5490 5491 5492 5493 5494 5495 5497 5498 5499 5501 5502 5503 5504 5505 5505 5506 5506 5507 5508 5509 5511 5512 5514 5515 5516 5517 5518 5519 5520 5520 5521 5522 5523 5523 5523 5523 5522 5522 5522 5521 5521
5480 5481 5481 5482 5483 5485 5486 5487 5488 5489 5490 5491 5493 5494 5495 5495 5496 5496 5497 5498 5499 5499 5501 5502 5503 5504 5506 5507 5507 5508 5509 5510 5511 5512 5512 5513 5513 5513 5513 5513 5513 5512 5512
5471 5472 5473 5474 5475 5476 5478 5479 5480 5480 5482 5483 5484 5485 5486 5486 5487 5488 5488 5489 5490 5490 5491 5492 5493 5494 5495 5496 5497 5498 5499 5500 5500 5501 5502 5503 5503 5503 5503 5503 5503 5503 5503